TimeCST,TemperatureF,Dew PointF,Humidity,Sea Level PressureIn,VisibilityMPH,Wind Direction,Wind SpeedMPH,Gust SpeedMPH,PrecipitationIn,Events,Conditions,WindDirDegrees,DateUTC
12:15 AM,67.1,56.8,70,30.12,10.0,SE,8.1,-,N/A,,Overcast,140,2012-12-31 06:15:00
12:35 AM,67.1,57.2,70,30.12,10.0,SSE,9.2,-,N/A,,Overcast,150,2012-12-31 06:35:00
12:55 AM,67.1,57.6,71,30.12,10.0,SSE,6.9,-,N/A,,Overcast,150,2012-12-31 06:55:00
1:15 AM,67.3,57.7,71,30.09,10.0,SSE,6.9,-,N/A,,Overcast,150,2012-12-31 07:15:00
1:35 AM,67.5,57.7,71,30.09,10.0,SSE,9.2,-,N/A,,Overcast,150,2012-12-31 07:35:00
1:55 AM,67.3,58.1,72,30.07,10.0,SSE,8.1,-,N/A,,Overcast,150,2012-12-31 07:55:00
2:15 AM,67.3,58.6,74,30.08,10.0,SSE,10.4,19.6,N/A,,Overcast,150,2012-12-31 08:15:00
2:35 AM,67.1,59.2,76,30.08,10.0,SSE,11.5,-,N/A,,Overcast,160,2012-12-31 08:35:00
2:55 AM,67.1,59.4,76,30.07,10.0,SSE,8.1,-,N/A,,Overcast,160,2012-12-31 08:55:00
3:15 AM,67.1,59.9,78,30.07,10.0,SSE,9.2,-,N/A,,Overcast,160,2012-12-31 09:15:00
3:35 AM,66.7,59.9,79,30.06,10.0,South,9.2,-,N/A,,Overcast,170,2012-12-31 09:35:00
3:55 AM,66.9,59.9,78,30.06,10.0,South,9.2,-,N/A,,Overcast,180,2012-12-31 09:55:00
4:15 AM,66.7,60.1,79,30.05,10.0,South,9.2,-,N/A,,Overcast,170,2012-12-31 10:15:00
4:35 AM,66.4,59.9,80,30.05,10.0,SSE,8.1,-,N/A,,Overcast,160,2012-12-31 10:35:00
4:55 AM,66.6,59.4,78,30.05,10.0,South,10.4,-,N/A,,Overcast,170,2012-12-31 10:55:00
5:15 AM,66.6,59.0,77,30.04,10.0,South,10.4,19.6,N/A,,Overcast,170,2012-12-31 11:15:00
5:35 AM,66.6,58.6,76,30.04,10.0,South,6.9,-,N/A,,Overcast,170,2012-12-31 11:35:00
5:55 AM,66.6,58.5,75,30.03,10.0,SSE,9.2,-,N/A,,Overcast,160,2012-12-31 11:55:00
6:15 AM,66.2,58.1,75,30.02,10.0,SSE,10.4,-,N/A,,Overcast,160,2012-12-31 12:15:00
6:55 AM,65.7,58.3,77,30.02,10.0,South,6.9,-,N/A,,Mostly Cloudy,170,2012-12-31 12:55:00
7:15 AM,65.7,58.5,78,30.02,10.0,SSE,6.9,-,N/A,,Mostly Cloudy,160,2012-12-31 13:15:00
7:35 AM,65.5,58.5,78,30.02,10.0,SSE,4.6,-,N/A,,Mostly Cloudy,150,2012-12-31 13:35:00
7:55 AM,65.5,58.6,79,30.03,10.0,SSE,3.5,-,N/A,,Scattered Clouds,160,2012-12-31 13:55:00
8:15 AM,65.5,58.6,79,30.03,10.0,SSE,4.6,-,N/A,,Clear,150,2012-12-31 14:15:00
8:35 AM,66.2,59.0,78,30.02,10.0,SSE,6.9,-,N/A,,Clear,150,2012-12-31 14:35:00
8:55 AM,67.3,59.5,76,30.03,10.0,SSE,6.9,-,N/A,,Clear,160,2012-12-31 14:55:00
9:15 AM,68.9,60.1,73,30.03,10.0,SSE,9.2,-,N/A,,Clear,160,2012-12-31 15:15:00
9:35 AM,70.7,60.8,71,30.04,10.0,South,11.5,17.3,N/A,,Clear,170,2012-12-31 15:35:00
9:55 AM,72.0,60.1,66,30.03,10.0,South,12.7,19.6,N/A,,Clear,170,2012-12-31 15:55:00
10:15 AM,73.8,60.3,63,30.03,10.0,South,15.0,20.7,N/A,,Scattered Clouds,170,2012-12-31 16:15:00
10:35 AM,75.6,59.9,58,30.03,10.0,South,18.4,25.3,N/A,,Mostly Cloudy,170,2012-12-31 16:35:00
10:55 AM,75.7,59.5,57,30.02,10.0,South,16.1,24.2,N/A,,Overcast,190,2012-12-31 16:55:00
11:15 AM,77.2,59.7,55,30.01,10.0,South,18.4,23.0,N/A,,Mostly Cloudy,190,2012-12-31 17:15:00
11:35 AM,77.2,59.5,54,30.00,10.0,South,16.1,27.6,N/A,,Scattered Clouds,170,2012-12-31 17:35:00
11:55 AM,78.3,59.7,53,29.99,10.0,South,20.7,25.3,N/A,,Mostly Cloudy,180,2012-12-31 17:55:00
12:15 PM,77.9,59.9,54,29.98,10.0,South,17.3,23.0,N/A,,Overcast,170,2012-12-31 18:15:00
12:35 PM,78.8,60.1,53,29.96,10.0,South,19.6,28.8,N/A,,Overcast,180,2012-12-31 18:35:00
12:55 PM,78.8,60.4,53,29.95,10.0,South,16.1,26.5,N/A,,Overcast,170,2012-12-31 18:55:00
1:15 PM,80.2,60.8,51,29.93,10.0,SSE,13.8,21.9,N/A,,Overcast,160,2012-12-31 19:15:00
1:35 PM,78.8,59.9,52,29.92,10.0,South,17.3,25.3,N/A,,Overcast,170,2012-12-31 19:35:00
1:55 PM,79.2,59.4,51,29.91,10.0,South,13.8,24.2,N/A,,Mostly Cloudy,180,2012-12-31 19:55:00
2:15 PM,79.7,59.2,49,29.90,10.0,South,13.8,26.5,N/A,,Mostly Cloudy,170,2012-12-31 20:15:00
2:35 PM,78.8,58.8,50,29.90,10.0,SSE,15.0,25.3,N/A,,Mostly Cloudy,160,2012-12-31 20:35:00
2:55 PM,79.3,58.6,49,29.89,10.0,South,15.0,21.9,N/A,,Scattered Clouds,180,2012-12-31 20:55:00
3:15 PM,78.1,59.7,53,29.89,10.0,SSE,16.1,21.9,N/A,,Scattered Clouds,150,2012-12-31 21:15:00
3:35 PM,77.4,59.9,55,29.88,10.0,SSE,16.1,25.3,N/A,,Scattered Clouds,150,2012-12-31 21:35:00
3:55 PM,77.5,60.1,55,29.88,10.0,SSE,20.7,26.5,N/A,,Clear,160,2012-12-31 21:55:00
4:15 PM,78.1,60.4,54,29.88,10.0,South,16.1,24.2,N/A,,Clear,170,2012-12-31 22:15:00
4:35 PM,78.1,60.6,55,29.87,10.0,SSE,17.3,24.2,N/A,,Clear,160,2012-12-31 22:35:00
4:55 PM,77.2,61.3,58,29.88,10.0,SSE,23.0,27.6,N/A,,Clear,160,2012-12-31 22:55:00
5:15 PM,75.9,61.5,61,29.87,10.0,SSE,18.4,27.6,N/A,,Clear,160,2012-12-31 23:15:00
5:35 PM,75.4,61.7,62,29.88,10.0,SSE,18.4,27.6,N/A,,Clear,160,2012-12-31 23:35:00
6:15 PM,73.6,61.9,67,29.89,10.0,SSE,15.0,25.3,N/A,,Clear,160,2013-01-01 00:15:00
6:35 PM,73.4,62.2,68,29.90,10.0,SSE,16.1,21.9,N/A,,Clear,160,2013-01-01 00:35:00
6:55 PM,72.9,62.2,69,29.89,10.0,South,17.3,23.0,N/A,,Clear,170,2013-01-01 00:55:00
7:15 PM,72.9,62.6,70,29.90,10.0,SSE,15.0,23.0,N/A,,Clear,160,2013-01-01 01:15:00
7:35 PM,72.7,62.8,71,29.90,10.0,SSE,15.0,21.9,N/A,,Clear,160,2013-01-01 01:35:00
7:55 PM,72.7,63.0,71,29.91,10.0,SSE,15.0,20.7,N/A,,Clear,160,2013-01-01 01:55:00
8:15 PM,72.7,63.0,71,29.91,10.0,SSE,17.3,24.2,N/A,,Clear,160,2013-01-01 02:15:00
8:35 PM,72.9,63.5,72,29.92,10.0,South,19.6,29.9,N/A,,Clear,170,2013-01-01 02:35:00
8:55 PM,72.5,63.5,73,29.93,10.0,SSE,17.3,26.5,N/A,,Clear,160,2013-01-01 02:55:00
9:15 PM,72.1,63.5,74,29.93,10.0,South,17.3,21.9,N/A,,Clear,170,2013-01-01 03:15:00
9:35 PM,72.0,63.5,75,29.93,10.0,South,12.7,23.0,N/A,,Clear,170,2013-01-01 03:35:00
10:15 PM,71.6,63.5,76,29.95,10.0,South,10.4,-,N/A,,Scattered Clouds,170,2013-01-01 04:15:00
10:35 PM,71.6,63.5,76,29.94,10.0,South,11.5,-,N/A,,Scattered Clouds,170,2013-01-01 04:35:00
10:55 PM,72.0,63.7,75,29.95,10.0,South,10.4,-,N/A,,Clear,180,2013-01-01 04:55:00
11:15 PM,72.0,63.9,76,29.94,10.0,South,8.1,-,N/A,,Clear,180,2013-01-01 05:15:00
11:35 PM,71.6,63.9,76,29.93,10.0,South,9.2,-,N/A,,Clear,180,2013-01-01 05:35:00